TimeEDT,TemperatureF,Dew PointF,Humidity,Sea Level PressureIn,VisibilityMPH,Wind Direction,Wind SpeedMPH,Gust SpeedMPH,PrecipitationIn,Events,Conditions,WindDirDegrees,DateUTC
12:05 AM,60.8,59.0,94,29.90,10.0,South,9.2,-,N/A,,Overcast,170,2013-05-10 04:05:00
12:46 AM,60.8,59.0,94,29.89,10.0,South,6.9,-,N/A,,Mostly Cloudy,180,2013-05-10 04:46:00
12:54 AM,60.1,59.0,96,29.88,10.0,South,8.1,-,N/A,,Mostly Cloudy,180,2013-05-10 04:54:00
1:54 AM,60.1,59.0,96,29.87,8.0,South,8.1,-,N/A,,Scattered Clouds,180,2013-05-10 05:54:00
2:54 AM,60.1,59.0,96,29.86,7.0,South,8.1,-,N/A,,Scattered Clouds,190,2013-05-10 06:54:00
3:54 AM,59.0,57.9,96,29.85,4.0,SW,4.6,-,N/A,,Scattered Clouds,220,2013-05-10 07:54:00
4:54 AM,59.0,59.0,100,29.83,4.0,SSW,6.9,-,N/A,,Mostly Cloudy,210,2013-05-10 08:54:00
5:54 AM,59.0,59.0,100,29.83,6.0,South,6.9,-,N/A,,Overcast,190,2013-05-10 09:54:00
6:54 AM,57.9,57.9,100,29.83,5.0,SSW,5.8,-,N/A,,Overcast,210,2013-05-10 10:54:00
7:54 AM,60.8,59.0,94,29.85,6.0,SW,4.6,-,N/A,,Overcast,220,2013-05-10 11:54:00
8:54 AM,60.8,60.8,100,29.85,6.0,SW,5.8,-,N/A,,Mostly Cloudy,230,2013-05-10 12:54:00
9:54 AM,63.0,61.0,93,29.84,8.0,WSW,10.4,-,N/A,,Mostly Cloudy,240,2013-05-10 13:54:00
10:54 AM,63.0,60.1,90,29.84,10.0,WSW,9.2,-,N/A,,Overcast,240,2013-05-10 14:54:00
11:26 AM,64.4,60.8,88,29.86,10.0,SW,9.2,-,N/A,,Overcast,230,2013-05-10 15:26:00
11:46 AM,64.4,60.8,88,29.87,10.0,WSW,10.4,-,N/A,,Overcast,250,2013-05-10 15:46:00
11:54 AM,64.0,61.0,90,29.86,10.0,WSW,6.9,-,0.00,Rain,Light Rain,240,2013-05-10 15:54:00
12:31 PM,62.6,60.8,94,29.85,10.0,West,8.1,-,N/A,Rain,Light Rain,260,2013-05-10 16:31:00
12:54 PM,62.6,60.8,94,29.86,10.0,WSW,5.8,-,N/A,Rain,Light Rain,250,2013-05-10 16:54:00
1:54 PM,63.0,61.0,93,29.86,7.0,WSW,9.2,-,0.00,Rain,Light Rain,240,2013-05-10 17:54:00
2:04 PM,62.6,60.8,94,29.86,9.0,WSW,5.8,-,0.00,,Overcast,240,2013-05-10 18:04:00
2:54 PM,64.0,61.0,90,29.84,7.0,WSW,8.1,-,0.00,Rain,Light Rain,250,2013-05-10 18:54:00
3:23 PM,64.4,60.8,88,29.84,10.0,WSW,6.9,-,0.01,Rain,Light Rain,250,2013-05-10 19:23:00
3:54 PM,64.0,59.0,84,29.82,10.0,West,5.8,-,0.01,,Overcast,260,2013-05-10 19:54:00
4:02 PM,64.4,59.0,83,29.82,10.0,West,6.9,-,N/A,,Overcast,270,2013-05-10 20:02:00
4:43 PM,66.2,59.0,78,29.81,10.0,West,8.1,-,N/A,,Mostly Cloudy,260,2013-05-10 20:43:00
4:54 PM,69.1,60.1,73,29.80,10.0,West,5.8,-,N/A,,Mostly Cloudy,260,2013-05-10 20:54:00
5:54 PM,66.0,57.0,73,29.81,4.0,WNW,15.0,-,0.00,Rain,Light Rain,290,2013-05-10 21:54:00
6:04 PM,60.8,59.0,94,29.82,2.0,WNW,6.9,19.6,0.02,Rain,Heavy Rain,300,2013-05-10 22:04:00
6:17 PM,60.8,60.8,100,29.82,1.2,NW,5.8,-,0.25,Rain,Heavy Rain,320,2013-05-10 22:17:00
6:27 PM,60.8,60.8,100,29.81,3.0,Calm,Calm,-,0.33,Rain,Light Rain,0,2013-05-10 22:27:00
6:52 PM,60.8,59.0,94,29.82,4.0,NW,10.4,-,0.34,Rain-Thunderstorm,Light Thunderstorms and Rain,310,2013-05-10 22:52:00
6:54 PM,61.0,59.0,93,29.82,4.0,NW,10.4,-,0.34,Rain-Thunderstorm,Light Thunderstorms and Rain,320,2013-05-10 22:54:00
7:12 PM,60.8,59.0,94,29.82,4.0,NW,9.2,-,0.03,Rain,Rain,310,2013-05-10 23:12:00
7:35 PM,60.8,57.2,88,29.83,4.0,NW,10.4,-,0.04,,Overcast,320,2013-05-10 23:35:00
7:54 PM,59.0,55.9,90,29.84,5.0,NW,16.1,-,0.04,,Overcast,320,2013-05-10 23:54:00
8:45 PM,55.4,53.6,94,29.86,4.0,NNW,13.8,-,N/A,,Mostly Cloudy,330,2013-05-11 00:45:00
8:54 PM,54.0,52.0,93,29.87,4.0,NNW,15.0,-,N/A,,Mostly Cloudy,330,2013-05-11 00:54:00
9:14 PM,53.6,51.8,94,29.88,6.0,NNW,15.0,-,N/A,,Overcast,330,2013-05-11 01:14:00
9:49 PM,51.8,48.2,88,29.89,7.0,NW,11.5,-,N/A,,Overcast,320,2013-05-11 01:49:00
9:54 PM,51.1,48.0,89,29.89,7.0,NW,9.2,-,N/A,,Overcast,320,2013-05-11 01:54:00
10:54 PM,48.9,46.0,90,29.91,10.0,NNW,12.7,-,N/A,,Overcast,340,2013-05-11 02:54:00
11:54 PM,48.0,45.0,89,29.91,9.0,NNW,12.7,-,N/A,,Overcast,330,2013-05-11 03:54:00